Regional Weather Roundup
Issued by NWS

Home | Current Version | Previous Version | Graphics & Text | Print | Product List | Glossary On
Versions: 1 2 3 4 5 6 7 8 9 10 11 12 13 14 15 16 17 18 19 20 21 22 23 24 25 26 27
000
ASUS45 KBOI 290310
RWRID

IDAHO REGIONAL WEATHER ROUNDUP
NATIONAL WEATHER SERVICE BOISE ID
900 PM MDT SUN MAY 28 2017

NOTE: "FAIR" INDICATES FEW OR NO CLOUDS BELOW 12000 FEET
WITH NO SIGNIFICANT WEATHER AND/OR OBSTRUCTIONS TO VISIBILITY

IDZ012-014-290400-
SOUTHWEST IDAHO


CITY           SKY/WX    TMP DP  RH WIND       PRES   REMARKS
BOISE          CLEAR     78  38  23 N9        30.07S
CALDWELL       CLEAR     76  42  29 NW5       30.06S
MOUNTAIN HOME  CLEAR     77  36  22 E3        30.07S
$$

IDZ016-017-290400-
SOUTHCENTRAL IDAHO


CITY           SKY/WX    TMP DP  RH WIND       PRES   REMARKS
BURLEY         CLEAR     66  44  45 N3        30.14S
JEROME         CLEAR     68  43  40 E3        30.15S
TWIN FALLS     CLEAR     58  50  75 CALM      30.15S
$$

IDZ019>023-290400-
SOUTHEAST IDAHO


CITY           SKY/WX    TMP DP  RH WIND       PRES   REMARKS
IDAHO FALLS    CLEAR     67  42  40 CALM      30.19R
POCATELLO      CLEAR     67  39  35 CALM      30.18S
REXBURG        CLEAR     66  40  38 S3        30.19S
$$

IDZ006-010-011-018-031-032-290400-
CENTRAL IDAHO MOUNTAINS


CITY           SKY/WX    TMP DP  RH WIND       PRES   REMARKS
MCCALL         CLEAR     68  33  27 NW3       30.18S
HAILEY         PTCLDY    63  45  51 SE3       30.22S
STANLEY          N/A     58  32  37 CALM      30.27S
SALMON         CLOUDY    66  43  42 S3        30.10S
CHALLIS        CLEAR     64  37  36 NW7       30.17S
$$

IDZ002-004-006-007-026-290400-
NORTHERN IDAHO


CITY           SKY/WX    TMP DP  RH WIND       PRES   REMARKS
LEWISTON       CLEAR     85  42  22 E3        30.01S
LOWELL           N/A     65  51  60 CALM      30.03R
COEUR D`ALENE  CLEAR     77  51  40 NW6       30.08R
MULLAN PASS    CLOUDY    61  34  36 N3        30.27S
$$




USA.gov is the U.S. government's official web portal to all federal, state and local government web resources and services.